Regional Weather Roundup
Issued by NWS

Home | Current Version | Previous Version | Graphics & Text | Print | Product List | Glossary On
Versions: 1 2 3 4 5 6 7 8 9 10 11 12 13 14 15 16 17 18 19 20 21 22 23 24 25 26 27 28 29 30 31 32 33 34 35 36 37 38 39 40 41 42 43 44 45 46 47 48 49 50
000
ASUS43 KIND 271059
RWRIN

WEATHER ROUNDUP FOR INDIANA
NATIONAL WEATHER SERVICE INDIANAPOLIS IN
700 AM EDT SAT AUG 27 2016

NOTE: "FAIR" INDICATES FEW OR NO CLOUDS BELOW 12,000 FEET WITH NO
SIGNIFICANT WEATHER AND/OR OBSTRUCTIONS TO VISIBILITY.

* - STATION DOES NOT REPORT WEATHER SUCH AS PRECIPITATION OR FOG.

+ - STATION NOT QUALITY CONTROLLED BY THE NATIONAL WEATHER SERVICE.
    USE DATA WITH CAUTION...ESPECIALLY DEWPOINT AND RELATIVE
    HUMIDITY OBSERVATIONS.

INZ001>003-010>013-019-020-271200-
NORTHWEST INDIANA

CITY           SKY/WX    TMP DP  RH WIND       PRES   REMARKS
GARY /AIRPORT/ TSTM      72  72 100 S3        30.11R
KNOX *+        CLOUDY    70  52  52 SE7       30.05S
MONTICELLO +   CLOUDY    72  67  86 CALM      30.06R
RENSSELAER +   CLOUDY    72  70  94 W3        30.09R THUNDER
VALPARAISO     TSTM      70  67  90 MISG      30.13R

$$

LMZ046-743>745-271200-
SOUTHERN LAKE MICHIGAN

STATION/POSITION TIME  TEMP    WIND        PRES    WAVE
                       AIR SEA DIR/SP/G            HT
                 (UTC) (F)     (DEG/KT/KT) (MB)    (FT)
BURNS HARBOR     1006   71      CALM  / 17 1018.3F
MICHIGAN CITY    1000   70      50/  5/  5   N/A
5NW MICH CITY    1000   71 74  110/  8/ 10   N/A     2

$$

INZ004-005-014>016-021>024-271200-
NORTH CENTRAL INDIANA

CITY           SKY/WX    TMP DP  RH WIND       PRES   REMARKS
GOSHEN         CLOUDY    70  63  78 E6        30.09S
SOUTH BEND     CLOUDY    71  65  81 E8        30.07S

$$

INZ006>009-017-018-025>027-271200-
NORTHEAST INDIANA

CITY           SKY/WX    TMP DP  RH WIND       PRES   REMARKS
ANGOLA *+      CLEAR     70  61  73 SE6       30.11S
FORT WAYNE     CLOUDY    70  64  81 E6        30.09F

$$

INZ028-029-035-036-043>045-051>053-271200-
WEST CENTRAL INDIANA

CITY           SKY/WX    TMP DP  RH WIND       PRES   REMARKS
CRAWFORDSVL +  PTCLDY    67  67 100 CALM      30.08R
GREENCASTLE +  CLOUDY    70  70 100 CALM      30.08S
LAFAYETTE      CLOUDY    69  69 100 E5        30.06S
TERRE HAUTE    MOCLDY    71  69  93 NW3       30.07R

$$

INZ030>032-037>040-046>048-054>057-064-065-271200-
CENTRAL INDIANA

CITY           SKY/WX    TMP DP  RH WIND       PRES   REMARKS
COLUMBUS       PTCLDY    68  68 100 CALM      30.08
INDIANAPOLIS   MOCLDY    71  69  93 E3        30.08R
-EAGLE CREEK   MOCLDY    71  69  93 CALM      30.08R
KOKOMO *+      CLOUDY    70  70 100 SE7       30.07R
MT COMFORT *+  MOCLDY    68  66  94 SE5       30.09R
SHELBYVILLE    CLOUDY    71  67  87 MISG      30.08R

$$

INZ033-034-041-042-049-050-058-059-271200-
EAST CENTRAL INDIANA

CITY           SKY/WX    TMP DP  RH WIND       PRES   REMARKS
MUNCIE         PTCLDY    70  68  93 SE6       30.09S

$$

INZ060-061-067>069-081>083-085>088-271200-
SOUTHWEST INDIANA

CITY           SKY/WX    TMP DP  RH WIND       PRES   REMARKS
EVANSVILLE     PTCLDY    73  71  93 CALM      30.05R
HUNTINGBURG *+ CLOUDY    73  70  88 E7        30.04F

$$

INZ062-063-066-070>080-084-089>092-271200-
SOUTH CENTRAL AND SOUTHEAST INDIANA

CITY           SKY/WX    TMP DP  RH WIND       PRES   REMARKS
BLOOMINGTON    CLOUDY    72  69  90 CALM      30.08R
MADISON *+     CLOUDY    72  70  94 E5        30.10S

$$





USA.gov is the U.S. government's official web portal to all federal, state and local government web resources and services.